Concordia, KS

9:32 AM CDT on October 17, 2017 (GMT -0500)
Blosser Municipal

Weather History for KCNK - June, 2013

Change the Weather History Date:

Tuesday, June 18, 2013

  Actual Average Record
Temperature  
Mean Temperature 74 °F 74 °F  
Max Temperature 87 °F 86 °F 103 °F (1953)
Min Temperature 61 °F 63 °F 50 °F (2000)
Degree Days  
Heating Degree Days 0 0  
Month to date heating degree days 15 11  
Since 1 June heating degree days 15 11  
Since 1 July heating degree days 5514 5406  
Cooling Degree Days 9 10  
Month to date cooling degree days 120 129  
Year to date cooling degree days 223 218  
Since 1 June cooling degree days 120 129  
Growing Degree Days 24 (Base 50)    
Moisture  
Dew Point 62 °F    
Average Humidity 64    
Maximum Humidity 93    
Minimum Humidity 35    
Precipitation  
Precipitation 0.01 in 0.13 in 3.40 in (1946)
Month to date precipitation 1.13 2.39  
Year to date precipitation 12.52 12.38  
Snow  
Snow 0.00 in 0.00 in T in (1968)
Month to date snowfall 0.0 0.0  
Year to date snowfall 20.3 13.7  
Since 1 July snowfall 28.8 20.2  
Snow Depth 0.00 in    
Sea Level Pressure  
Sea Level Pressure 29.98 in    
Wind  
Wind Speed 5 mph (SSE)    
Max Wind Speed 18 mph    
Max Gust Speed 24 mph    
Visibility 10 miles    
Events Rain , Thunderstorm    
T = Trace of Precipitation, MM = Missing Value Source: NWS Daily Summary

Daily Weather History Graph

Daily Weather History Graph

Search for Another Location

Airport or City:

Trip Planner

Search our weather history database for the weather conditions in past years. The results will help you decide how hot, cold, wet, or windy it might be!

Date:

Astronomy

Jun. 18, 2013 Rise Set
Actual Time 6:02 AM CDT 9:00 PM CDT
Civil Twilight 5:30 AM CDT 9:33 PM CDT
Nautical Twilight 4:49 AM CDT 10:14 PM CDT
Astronomical Twilight 4:01 AM CDT 11:02 PM CDT
Moon 3:47 PM CDT (6/18) 2:10 AM CDT (6/18)
Length of Visible Light 16h 02m
Length of Day
14h 57m
Waxing Gibbous, 71% of the Moon is Illuminated
Jun 18
Waxing Gibbous
Jun 23
Full
Jun 29
Last Quarter
Jul 8
New
Jul 15
First Quarter

Hourly Weather History & Observations

Time (CDT) Temp. Heat Index Dew Point Humidity Pressure Visibility Wind Dir Wind Speed Gust Speed Precip Events Conditions
12:55 AM 71.1 °F - 62.1 °F 73% 29.99 in 10.0 mi SW 8.1 mph - N/A   Clear
1:55 AM 68.0 °F - 62.1 °F 81% 29.99 in 10.0 mi Calm Calm - N/A   Clear
2:55 AM 66.9 °F - 61.0 °F 81% 29.99 in 10.0 mi Calm Calm - N/A   Clear
3:55 AM 64.9 °F - 61.0 °F 87% 29.99 in 10.0 mi Calm Calm - N/A   Clear
4:55 AM 66.0 °F - 61.0 °F 84% 29.99 in 10.0 mi Calm Calm - N/A   Clear
5:55 AM 63.0 °F - 60.1 °F 90% 29.99 in 10.0 mi Calm Calm - N/A   Clear
6:55 AM 64.9 °F - 61.0 °F 87% 30.01 in 10.0 mi Calm Calm - N/A   Clear
7:55 AM 70.0 °F - 63.0 °F 78% 30.01 in 10.0 mi Calm Calm - N/A   Clear
8:55 AM 73.9 °F - 64.9 °F 73% 30.02 in 10.0 mi West 4.6 mph - N/A   Clear
9:55 AM 78.1 °F - 64.9 °F 64% 30.02 in 10.0 mi WNW 8.1 mph - N/A   Clear
10:55 AM 81.0 °F 82.2 °F 63.0 °F 54% 30.00 in 10.0 mi NW 4.6 mph - N/A   Clear
11:55 AM 82.9 °F 84.0 °F 63.0 °F 51% 29.99 in 10.0 mi West 4.6 mph - N/A   Clear
12:55 PM 84.0 °F 83.8 °F 59.0 °F 43% 29.98 in 10.0 mi SW 5.8 mph - N/A   Clear
1:55 PM 86.0 °F 84.7 °F 55.9 °F 36% 29.97 in 10.0 mi Calm Calm - N/A   Clear
2:55 PM 84.9 °F 84.2 °F 57.9 °F 40% 29.96 in 10.0 mi South 5.8 mph - N/A   Partly Cloudy
3:55 PM 82.9 °F 83.7 °F 62.1 °F 49% 29.94 in 10.0 mi East 13.8 mph 18.4 mph N/A   Overcast
4:33 PM 75.2 °F - 60.8 °F 61% 29.99 in 10.0 mi East 8.1 mph - N/A Thunderstorm Thunderstorm
4:55 PM 75.9 °F - 61.0 °F 60% 29.96 in 10.0 mi NE 8.1 mph - N/A Thunderstorm Overcast
5:55 PM 73.0 °F - 62.1 °F 68% 29.97 in 10.0 mi SE 8.1 mph - 0.00 in Thunderstorm Mostly Cloudy
6:12 PM 71.6 °F - 60.8 °F 69% 29.99 in 10.0 mi SE 5.8 mph - 0.00 in Rain Light Rain
6:23 PM 71.6 °F - 62.6 °F 73% 30.00 in 10.0 mi Calm Calm - 0.00 in Rain , Thunderstorm Light Rain
6:55 PM 68.0 °F - 63.0 °F 84% 29.96 in 10.0 mi SSW 12.7 mph - 0.01 in Rain Light Rain
7:55 PM 69.1 °F - 61.0 °F 75% 29.94 in 10.0 mi SE 9.2 mph - 0.00 in   Clear
8:55 PM 69.1 °F - 63.0 °F 81% 29.94 in 10.0 mi ESE 10.4 mph - N/A   Clear
9:55 PM 68.0 °F - 64.0 °F 87% 29.94 in 10.0 mi SE 8.1 mph - N/A   Clear
10:55 PM 66.9 °F - 63.0 °F 87% 29.94 in 10.0 mi ESE 5.8 mph - N/A   Clear
11:55 PM 64.9 °F - 62.1 °F 90% 29.95 in 10.0 mi ESE 6.9 mph - N/A   Clear